Probability
5 7 12 14 14 14 15 17 19 20 19 19 16 13 12 10 8 6 5 4 3 3 4 4 4 4 3 2 1 0 0 0 0 0 0 0 0 0 0 0 0 0 0
6 8 11 14 14 13 14 16 18 20 20 19 17 15 13 11 8 7 6 5 4 5 5 5 6 5 4 1 0 0 0 0 0 0 0 0 0 0 0 0 0 0 0
7 9 12 14 13 12 13 15 16 18 20 19 18 17 15 12 10 9 9 8 8 7 7 7 7 6 5 2 0 0 0 0 0 0 0 0 0 0 0 0 0 0 0
7 9 12 14 12 11 13 15 15 17 18 18 17 16 15 14 11 10 10 10 10 9 8 8 7 7 7 4 2 1 1 1 1 1 0 0 0 0 0 0 0 0 0
6 8 12 14 13 11 12 15 16 16 16 16 15 14 15 13 11 10 9 9 9 8 8 8 8 8 8 7 5 4 2 1 1 0 0 0 0 0 0 0 0 0 0
5 6 10 14 13 11 12 15 16 16 15 15 14 14 14 13 11 10 10 10 9 8 7 7 8 9 9 9 8 6 3 1 0 0 0 0 0 0 0 0 0 0 0
4 4 8 11 12 11 11 12 15 16 15 15 14 14 14 13 11 11 12 13 11 8 5 6 8 9 10 9 8 6 3 0 0 0 0 0 0 0 0 0 0 0 0
3 3 5 8 8 8 8 10 13 13 13 13 14 13 14 14 13 12 12 12 11 8 5 4 6 7 8 7 6 4 2 0 0 0 0 0 0 0 0 0 0 0 0
3 3 5 6 6 5 6 8 11 10 10 10 11 12 13 14 13 12 11 10 10 8 6 5 5 5 5 5 4 3 1 0 0 0 0 0 0 0 0 0 0 0 0
1 2 4 4 4 4 4 5 7 7 7 7 8 9 11 12 12 11 10 10 10 9 8 6 5 4 3 3 3 2 1 0 0 0 0 0 0 0 0 0 0 0 0
1 2 2 2 2 2 3 3 5 6 7 7 6 6 8 10 10 10 9 9 10 9 7 6 5 4 3 2 2 1 0 0 0 0 0 0 0 0 0 0 0 0 0
3 4 3 1 0 1 1 1 3 5 7 8 7 6 6 7 7 7 7 7 7 6 4 3 2 2 1 1 1 1 0 0 0 0 0 0 0 0 0 0 0 0 0
2 4 4 1 0 0 0 0 1 3 6 8 8 7 6 5 4 5 5 4 3 2 1 1 0 0 0 0 0 0 0 0 0 0 0 0 0 0 0 0 0 0 0
1 2 3 1 0 0 0 0 0 1 3 4 6 6 6 5 4 4 4 3 1 0 0 0 0 0 0 0 0 0 0 0 0 0 0 0 0 0 0 0 0 0 0
2 2 2 1 0 0 0 0 1 1 1 1 3 4 4 4 4 3 3 2 1 0 0 0 0 0 0 0 0 0 0 0 0 0 0 0 0 0 0 0 0 0 0
3 2 1 0 0 0 0 0 1 1 0 0 1 1 1 2 2 3 3 2 0 0 0 0 0 0 0 0 0 0 0 0 0 0 0 0 0 0 0 0 0 0 0
3 2 0 0 0 0 0 0 1 1 0 0 0 0 0 0 1 2 2 1 0 0 0 0 0 0 0 0 0 0 0 0 0 0 0 0 0 0 0 0 0 0 0
2 1 0 0 0 0 0 0 0 0 0 0 0 0 0 0 0 1 1 1 0 0 0 0 0 0 0 0 0 0 0 0 0 0 0 0 0 0 0 0 0 0 0
2 1 0 0 0 0 0 0 0 0 0 0 0 0 0 0 0 0 0 0 0 0 0 0 0 0 0 0 0 0 0 0 0 0 0 0 0 0 0 0 0 0 0
2 1 0 0 0 0 0 0 0 0 0 0 0 0 0 0 0 0 0 0 0 0 0 0 0 0 0 0 0 0 0 0 0 0 0 0 0 0 0 0 0 0 0
2 1 0 0 0 0 0 0 0 0 0 0 0 0 0 0 0 0 0 0 0 0 0 0 0 0 0 0 0 0 0 0 0 0 0 0 0 0 0 0 0 0 0
1 0 0 0 0 0 0 0 0 0 0 0 0 0 0 0 0 0 0 0 0 0 0 0 0 0 0 0 0 0 0 0 0 0 0 0 0 0 0 0 0 0 0
0 0 0 0 0 0 0 0 0 0 0 0 0 0 0 0 0 0 0 0 0 0 0 0 0 0 0 0 0 0 0 0 0 0 0 0 0 0 0 0 0 0 0
0 0 0 0 0 0 0 0 0 0 0 0 0 0 0 0 0 0 0 0 0 0 0 0 0 0 0 0 0 0 0 0 0 0 0 0 0 0 0 0 0 0 0
0 0 0 0 0 0 0 0 0 0 0 0 0 0 0 0 0 0 0 0 0 0 0 0 0 0 0 0 0 0 0 0 0 0 0 0 0 0 0 0 0 0 0
0 0 0 0 0 0 0 0 0 0 0 0 0 0 0 0 0 0 0 0 0 0 0 0 0 0 0 0 0 0 0 0 0 0 0 0 0 0 0 0 0 0 0
Wind_Speed
2 3 2 3 6 8 8 9 9 9 9 10 10 10 11 11 11 11 11 10 11 10 10 11 11 11 11 11 12 11 11 11 12 11 11 12 12 13 12 12 10 7 12
2 3 2 4 6 7 8 8 8 8 9 9 9 10 10 11 11 10 10 10 10 10 11 11 11 11 11 11 11 11 11 11 11 10 10 9 11 11 11 11 10 7 11
2 1 2 4 6 7 7 8 8 8 9 9 9 9 10 10 10 10 10 10 10 10 10 10 10 10 10 10 10 10 10 11 10 10 9 5 5 9 10 9 10 10 11
2 1 1 3 5 6 7 7 8 8 8 9 9 9 9 10 10 10 10 10 9 9 10 10 10 10 10 10 10 10 10 10 10 9 5 4 3 7 9 9 9 9 9
3 3 2 4 4 6 6 6 7 7 7 8 9 8 9 9 9 9 9 9 9 9 9 9 10 10 10 10 10 10 10 10 10 7 4 3 3 6 8 8 8 8 8
4 4 3 4 4 4 5 6 6 6 7 7 8 8 8 9 8 8 8 8 8 8 9 9 9 10 10 10 10 10 10 10 8 4 3 3 2 5 7 8 8 7 7
3 4 4 5 4 4 4 4 5 6 6 6 7 7 8 8 8 8 7 8 8 8 8 9 9 9 9 9 10 10 9 9 5 4 3 2 2 5 6 7 7 6 6
4 4 4 4 5 4 4 5 4 4 5 5 6 7 7 7 7 7 7 7 7 8 8 8 8 9 9 9 9 9 9 7 5 3 2 1 3 5 5 5 6 5 5
5 5 4 3 3 4 3 4 4 4 4 5 5 6 6 6 6 7 6 6 7 7 7 7 8 8 8 8 9 9 9 8 4 2 2 0 3 4 5 4 4 4 5
5 5 5 4 3 2 1 2 3 3 3 4 4 5 5 5 5 5 5 6 6 6 6 7 7 8 7 8 8 8 8 6 3 2 1 1 3 4 4 4 4 4 4
5 4 4 4 4 3 2 2 3 3 3 3 3 4 3 2 2 3 3 5 5 5 6 7 7 7 7 7 8 7 6 2 2 2 1 1 2 3 4 3 3 3 3
4 4 4 3 3 3 2 2 1 1 2 2 2 2 2 2 2 3 3 4 4 5 5 6 7 6 6 3 4 5 2 2 2 1 1 1 2 2 2 2 2 2 2
2 3 3 3 2 2 2 2 1 1 1 1 2 2 2 2 1 2 2 2 2 3 3 4 4 3 3 2 2 2 2 2 1 1 1 1 0 1 1 1 1 1 1
2 3 2 2 2 2 2 1 1 1 1 1 1 2 2 1 1 1 2 1 1 1 2 2 2 2 3 3 3 2 2 1 1 1 1 2 1 1 1 1 1 1 1
2 3 3 2 1 2 2 1 1 1 1 1 1 1 1 2 2 1 1 2 1 2 2 2 2 2 2 2 2 2 2 1 1 1 1 3 2 2 2 2 1 1 1
2 2 2 1 1 1 1 1 1 1 1 1 1 1 1 1 2 2 1 2 2 2 2 2 2 2 2 2 2 1 1 0 0 0 1 2 3 3 2 2 2 2 2
2 2 2 1 1 1 1 1 1 1 1 1 1 1 1 1 1 1 2 2 2 2 2 2 2 2 2 1 1 1 1 0 0 1 1 1 2 3 3 2 2 3 3
2 2 2 1 2 2 1 1 1 1 1 1 1 1 1 1 1 2 1 1 2 2 2 2 2 2 1 1 1 0 1 0 0 0 1 1 1 1 3 4 4 4 4
1 1 2 2 2 2 1 1 1 1 2 1 1 1 1 1 1 2 1 1 2 2 2 2 2 2 2 1 1 1 0 0 0 0 1 1 1 1 1 3 5 5 5
2 2 2 2 2 2 2 2 2 2 2 1 1 1 1 0 1 1 1 1 2 2 2 2 3 2 2 1 1 1 0 0 0 0 0 0 1 1 1 1 2 3 5
3 3 2 2 2 2 1 1 1 1 1 1 1 2 1 0 1 1 1 1 2 2 2 3 3 3 2 1 2 1 1 1 0 0 0 0 0 1 1 1 1 1 2
3 2 2 2 2 2 1 0 0 0 0 0 1 1 1 0 0 1 1 1 1 2 2 2 3 2 2 1 2 1 1 1 1 1 0 0 1 1 1 1 1 1 1
3 2 2 2 2 2 2 1 1 1 1 1 1 1 2 0 1 1 1 1 1 2 2 3 3 3 3 1 1 2 2 2 2 1 1 1 1 1 1 1 1 1 1
3 2 2 3 3 2 2 1 1 0 0 1 1 1 2 1 0 1 1 1 1 1 2 2 2 2 3 3 2 1 1 2 1 2 2 1 1 1 2 2 1 1 1
3 3 2 2 3 2 2 1 1 1 1 1 1 1 1 1 0 0 1 1 1 1 1 1 1 2 3 3 2 2 1 0 1 1 2 2 2 2 2 2 2 2 2
3 3 3 2 2 2 2 1 1 0 1 1 1 1 1 1 1 0 1 1 1 1 1 1 2 2 3 3 2 2 2 2 2 2 2 2 3 2 2 2 2 2 2
Wind_Direction
309 290 229 127 119 113 113 115 114 116 118 121 121 121 122 121 118 116 116 116 114 112 112 113 111 110 108 106 104 104 103 99 96 93 94 96 96 94 91 89 85 78 85
279 268 197 133 122 117 115 115 113 111 113 117 122 121 119 120 119 119 117 116 118 115 111 110 110 111 110 109 108 107 104 99 96 93 89 88 94 96 94 94 93 92 89
352 313 159 133 126 125 120 115 114 111 112 113 115 118 118 119 119 116 114 112 112 113 112 110 109 109 108 108 108 109 107 102 97 91 81 68 82 97 98 96 95 91 88
23 37 82 123 131 130 127 121 117 117 113 113 112 112 113 115 116 114 111 109 109 113 111 108 107 108 108 107 105 106 106 104 98 88 71 63 64 96 101 96 93 90 89
40 37 59 91 125 132 128 124 120 122 118 117 119 118 115 115 116 115 111 110 110 111 110 108 107 108 108 106 105 104 104 104 97 82 69 62 55 96 101 101 96 93 90
37 30 32 82 95 117 128 127 122 121 121 120 122 122 123 120 118 119 116 113 112 112 112 108 106 109 108 106 107 107 105 99 92 81 72 63 56 97 104 104 101 96 93
36 26 31 60 77 90 113 127 128 128 127 125 126 126 126 125 119 120 121 118 114 110 112 112 109 108 110 110 107 104 105 103 91 84 74 61 83 101 105 107 106 102 99
38 23 25 51 60 70 104 110 118 126 133 129 130 133 131 129 125 119 118 121 119 116 115 117 117 112 109 110 108 103 100 99 94 87 80 63 112 114 110 104 103 102 94
38 29 20 21 35 52 71 105 103 111 119 129 130 133 129 127 129 130 120 121 121 118 119 122 117 115 111 111 109 105 102 91 85 79 80 72 117 119 116 112 112 109 106
38 28 17 15 19 25 38 79 94 93 103 111 113 121 124 126 130 128 119 115 119 120 121 120 114 110 109 109 108 106 98 84 74 68 44 61 117 119 113 108 108 114 111
25 21 16 16 15 15 22 61 76 72 81 99 91 101 112 120 123 118 107 112 117 120 122 122 116 110 102 102 104 100 91 75 74 58 34 54 122 125 116 110 107 109 108
360 359 11 17 19 23 29 55 56 60 62 80 85 88 94 106 112 108 105 109 114 115 115 114 112 104 90 83 91 90 81 79 73 43 14 36 123 135 132 132 122 114 116
332 347 355 1 24 42 38 51 56 59 67 70 80 90 96 94 107 105 110 97 102 104 103 99 95 86 87 86 84 80 82 84 69 8 353 20 108 164 167 159 169 157 141
348 337 351 5 36 45 52 67 67 71 75 75 75 97 111 112 110 127 124 117 110 110 106 98 95 94 93 92 99 93 81 79 68 18 355 23 16 323 284 260 228 228 222
349 342 349 12 32 44 64 65 70 70 85 91 79 78 106 136 139 141 135 127 130 123 125 117 113 112 106 97 96 99 91 68 66 40 356 13 8 349 329 311 282 240 257
333 330 337 11 21 57 71 77 70 66 60 83 86 74 89 118 149 148 146 147 144 146 142 136 137 133 133 119 103 103 112 89 66 53 3 357 4 2 350 338 327 323 320
314 326 332 358 32 68 69 55 53 51 59 63 69 65 77 96 113 140 149 164 164 153 141 128 117 117 113 106 107 114 118 90 77 61 19 16 1 5 4 356 343 338 336
337 336 336 4 35 39 56 60 50 56 61 54 51 60 53 71 98 108 126 157 153 145 138 135 123 120 121 127 134 132 102 88 58 51 44 35 23 5 354 358 343 333 331
346 7 6 17 29 22 34 43 53 56 56 47 50 54 44 65 88 107 114 118 132 132 134 139 133 140 145 148 163 120 96 125 271 74 66 47 33 15 11 360 357 350 338
359 22 36 33 24 33 41 42 45 44 33 33 19 14 26 70 101 118 120 101 119 130 138 142 142 132 146 152 129 81 48 48 56 58 217 69 35 2 19 8 350 343 343
14 18 26 40 20 33 40 35 23 359 6 25 11 14 341 21 126 136 114 128 129 137 156 158 152 142 126 111 97 43 351 38 58 267 230 186 351 326 350 343 339 343 337
9 8 12 18 18 15 16 39 231 327 3 17 19 1 323 323 172 169 139 156 145 132 133 149 153 149 131 121 125 121 333 330 315 279 251 223 266 293 301 307 305 317 325
359 358 352 354 359 1 6 39 47 51 24 24 8 356 335 329 159 163 155 155 154 153 169 177 166 151 163 171 135 141 152 223 293 287 250 234 264 259 272 284 285 291 305
336 347 4 1 359 360 14 35 57 76 260 280 307 336 343 331 174 155 138 149 159 168 174 187 179 168 168 177 180 187 164 158 175 286 288 269 273 265 271 290 283 277 290
339 349 358 8 1 358 10 22 30 347 292 319 352 8 352 340 277 146 134 131 147 172 199 189 199 183 181 183 179 169 169 151 160 201 269 287 293 264 263 262 259 264 273
355 359 360 13 356 353 9 27 43 343 321 360 353 328 330 352 325 314 127 151 179 185 204 208 214 207 197 188 193 185 175 175 189 194 236 265 277 272 264 253 245 246 251